User: anonymous   Login
Location: Unspecified
(0.0000°N, 0.0000°E)
Time: 19:54:38
(UTC+00:00)
Language:

EUTE 9B - Orbit

View from above orbital plane
View from above orbital plane
View from above satellite
View from above satellite

Ground track
Ground track

The orbit data is extracted from the following two-line orbital elements,

1 41310U 16005A   23337.44216112  .00000074  00000-0  00000-0 0  9991
2 41310   0.0636  74.8743 0005234 183.1576 342.1627  1.00271108 28829
Epoch (UTC): 03 December 2023 10:36:42
Eccentricity: 0.0005234
inclination: 0.0636°
perigee height: 35764 km
apogee height: 35808 km
right ascension of ascending node: 74.8743°
argument of perigee: 183.1576°
revolutions per day: 1.00271108
mean anomaly at epoch: 342.1627°
orbit number at epoch: 2882

The dashed part of the orbit path shows where the satellite is in the earth's shadow,  

DLR